Location: Guayaquil
(2.1667°S, 79.9000°W)
Time: 09:40:49
(UTC-05:00)

Envisat - Pass Details

Date: 08 August 2020
Orbit: 764 x 766 km, 98.1° (Epoch: 23 September)

Event Time Altitude Azimuth Distance (km) Brightness Sun altitude
Rises 19:15:44 0° 203° (SSW) 3,231 6.3 -12.8°
Reaches altitude 10° 19:19:22 10° 231° (SW) 2,302 6.0 -13.6°
Maximum altitude 19:21:34 13° 257° (WSW) 2,105 6.2 -14.2°
Drops below altitude 10° 19:23:47 10° 283° (WNW) 2,297 6.9 -14.7°
Sets 19:27:26 0° 310° (NW) 3,219 7.5 -15.6°
